[[{"header":{"parameterUnit":"m.s-1","parameterCategory":1,"la1":30.2992,"la2":30.254,"lo1":-89.0895,"lo2":-89.0443,"dy":0.0025,"dx":0.0025,"nx":19,"ny":19,"refTime":"2026-05-23T09:00:00:Z","depth":0,"parameterNumber":2,"parameterNumberName":"U-component_of_WINDS"},"data":[0,0,0,-2.4048,-2.4049,-2.4113,-2.4113,-2.419,-2.4191,0,0,0,0,0,0,0,0,0,0,0,-2.4027,-2.4028,-2.4048,-2.4049,-2.4113,-2.4113,-2.419,-2.4191,0,0,0,0,0,0,0,0,0,0,0,-2.4027,-2.4028,-2.4028,-2.405,-2.4113,-2.4113,-2.419,-2.4143,0,0,0,0,0,0,0,0,0,0,-2.4082,-2.4062,-2.4027,-2.4028,-2.405,-2.4113,-2.4113,-2.4141,-2.4146,-2.416,0,-2.4173,0,-2.4183,-2.4196,-2.4196,0,0,0,-2.405,-2.4057,-2.4076,-2.4028,-2.405,-2.4112,-2.4084,-2.4144,-2.415,-2.4167,-2.4174,-2.4177,-2.4184,-2.4196,-2.4197,-2.4275,-2.4275,0,0,-2.4047,-2.4037,-2.4072,-2.408,-2.4071,-2.4082,-2.4086,-2.4148,-2.4154,-2.4174,-2.4179,-2.4186,-2.4197,-2.4198,-2.4275,-2.4275,0,0,0,-2.4036,-2.4035,-2.4052,-2.4077,-2.4088,-2.4084,-2.4089,-2.4151,-2.4158,-2.4179,-2.4187,-2.4197,-2.4198,-2.4275,-2.4275,-2.428,0,0,0,-2.4034,-2.4029,-2.4051,-2.4046,-2.4087,-2.4121,-2.4091,-2.4154,-2.4161,-2.4186,-2.4197,-2.4199,-2.4274,-2.4275,-2.428,-2.4284,0,0,0,-2.4024,-2.4027,-2.4036,-2.4045,-2.4072,-2.412,-2.413,-2.4155,-2.4165,-2.4196,-2.4199,-2.4274,-2.4275,-2.4279,-2.4282,-2.4301,0,0,0,-2.4009,-2.404,-2.4036,-2.4073,-2.4071,-2.4124,-2.413,-2.4169,-2.4197,-2.4198,-2.4274,-2.4275,-2.4279,-2.4282,-2.43,-2.4313,-2.4318,0,0,-2.4042,-2.4043,-2.4066,-2.4064,-2.4115,-2.4115,-2.4166,-2.42,-2.4212,-2.4253,-2.4255,-2.428,-2.4282,-2.43,-2.4354,-2.4358,0,0,0,-2.4072,-2.4088,-2.4104,-2.413,-2.4158,-2.4182,-2.4209,-2.4222,-2.4258,-2.4231,-2.4293,-2.4295,-2.4306,-2.4312,-2.4315,-2.4325,-2.4278,-2.4278,-2.4278,-2.4102,-2.4117,-2.4155,-2.4177,-2.4203,-2.4232,-2.4254,-2.4276,-2.4283,-2.4297,-2.4308,-2.4339,-2.4347,-2.4349,-2.4359,-2.4319,-2.4319,-2.4319,-2.4319,-2.415,-2.4173,-2.4184,-2.4224,-2.4239,-2.4273,-2.4303,-2.4306,-2.434,-2.4331,-2.4342,-2.4329,-2.4353,-2.4362,-2.4319,-2.4319,-2.4319,-2.4319,-2.4319,-2.4169,-2.4183,-2.4199,-2.424,-2.4269,-2.4292,-2.4324,-2.4337,-2.435,-2.436,-2.4373,-2.4373,-2.4373,-2.4366,-2.4366,-2.4366,-2.4366,-2.4367,-2.4367,-2.4181,-2.42,-2.4225,-2.4259,-2.4278,-2.4305,-2.4337,-2.4356,-2.438,-2.4387,-2.4387,-2.4391,-2.4354,-2.4343,-2.4368,-2.4368,-2.4368,-2.4368,-2.4367,-2.4219,-2.4213,-2.4252,-2.4272,-2.4313,-2.4341,-2.4359,-2.4398,-2.4416,-2.4431,-2.4435,-2.4405,-2.4406,-2.4404,-2.4395,-2.4432,-2.4432,-2.4432,-2.4432,-2.4233,-2.4237,-2.428,-2.431,-2.4342,-2.4363,-2.4406,-2.4432,-2.4457,-2.4469,-2.4466,-2.4456,-2.4453,-2.4456,-2.4453,-2.4444,-2.4493,-2.4493,-2.4493,-2.4257,-2.4264,-2.4298,-2.4324,-2.4358,-2.4386,-2.4428,-2.4462,-2.449,-2.4496,-2.4478,-2.4476,-2.446,-2.4454,-2.4457,-2.4451,-2.4435,0,0]},{"header":{"parameterUnit":"m.s-1","parameterCategory":1,"la1":30.2992,"la2":30.254,"lo1":-89.0895,"lo2":-89.0443,"dy":0.0025,"dx":0.0025,"nx":19,"ny":19,"refTime":"2026-05-23T09:00:00:Z","depth":0,"parameterNumber":3,"parameterNumberName":"V-component_of_WINDS"},"data":[0,0,0,3.7817,3.7816,3.7779,3.7779,3.7751,3.7751,0,0,0,0,0,0,0,0,0,0,0,3.7841,3.7841,3.7817,3.7816,3.7779,3.7779,3.7751,3.7751,0,0,0,0,0,0,0,0,0,0,0,3.7841,3.7841,3.7841,3.7816,3.7779,3.7779,3.7751,3.7772,0,0,0,0,0,0,0,0,0,0,3.7804,3.784,3.7841,3.7841,3.7816,3.7779,3.7779,3.7773,3.7771,3.7777,0,3.7787,0,3.7769,3.7751,3.7751,0,0,0,3.7806,3.7842,3.782,3.7842,3.7816,3.778,3.7793,3.7771,3.7769,3.7774,3.7787,3.7785,3.7769,3.7751,3.7751,3.7822,3.7823,0,0,3.7808,3.7841,3.7822,3.7819,3.7828,3.7794,3.7792,3.777,3.7785,3.7787,3.7784,3.7768,3.7751,3.7751,3.7821,3.7822,0,0,0,3.7821,3.7843,3.7821,3.7821,3.7813,3.7793,3.7791,3.7786,3.7776,3.7784,3.7768,3.7751,3.7751,3.7821,3.7822,3.7894,0,0,0,3.7821,3.7851,3.7823,3.7843,3.7814,3.7799,3.7808,3.7777,3.7774,3.7768,3.7751,3.7751,3.782,3.7821,3.789,3.7923,0,0,0,3.7839,3.7852,3.7852,3.7845,3.783,3.7799,3.7787,3.7776,3.7765,3.7751,3.7751,3.7819,3.7821,3.7887,3.7917,3.7951,0,0,0,3.7867,3.7918,3.7854,3.7904,3.7831,3.7845,3.7787,3.7795,3.7792,3.7751,3.782,3.7822,3.7886,3.7914,3.7947,3.7985,3.8004,0,0,3.795,3.7929,3.7956,3.7897,3.7931,3.7847,3.7891,3.7856,3.7824,3.7824,3.7825,3.7892,3.7917,3.795,3.81,3.8115,0,0,0,3.7993,3.8013,3.8015,3.8013,3.7988,3.7968,3.7923,3.7909,3.7908,3.7831,3.7912,3.7926,3.7944,3.796,3.7973,3.7986,3.7831,3.7831,3.7831,3.816,3.8115,3.8156,3.8106,3.8105,3.8057,3.8051,3.8025,3.7981,3.8,3.8,3.8097,3.8117,3.8127,3.814,3.8017,3.8017,3.8017,3.8017,3.8276,3.8297,3.8235,3.8253,3.8204,3.8218,3.8172,3.814,3.8144,3.8094,3.8107,3.8056,3.8145,3.8154,3.8022,3.8022,3.8021,3.802,3.802,3.838,3.8382,3.8364,3.8356,3.8354,3.8301,3.8308,3.8263,3.8221,3.8235,3.8229,3.8227,3.822,3.8235,3.8235,3.8236,3.8236,3.8236,3.8236,3.8494,3.8472,3.8484,3.8459,3.8451,3.8435,3.8385,3.8375,3.8352,3.8319,3.8319,3.8272,3.8162,3.8135,3.8241,3.8241,3.824,3.8239,3.8239,3.8629,3.8591,3.8609,3.8601,3.8567,3.8567,3.8509,3.8492,3.8477,3.8481,3.843,3.8357,3.8333,3.8322,3.8299,3.8441,3.8441,3.8441,3.8441,3.8716,3.8699,3.8706,3.8696,3.868,3.8629,3.8648,3.8608,3.8561,3.8548,3.8521,3.8487,3.8478,3.8459,3.8445,3.8423,3.8594,3.8594,3.8594,3.8796,3.8775,3.8801,3.8755,3.8724,3.8698,3.8714,3.8702,3.864,3.8599,3.8537,3.8531,3.8475,3.846,3.8419,3.8399,3.8357,0,0]}]]